This is the latest recevied weather packets stored in our database for station/object CT2HRB-13. If no packets are shown the sender has not sent any weather packets the latest 10 day(s).
| Time | Temp. | Humidity | Pressure | Rain* | Wind** | Luminosity | Snow |
|---|---|---|---|---|---|---|---|
| 1777631101 | 20° C | 52% | 1019.2 hPa | - | - | - | - |
| 1777630802 | 20° C | 53% | 1019.2 hPa | - | - | - | - |
| 1777630502 | 20° C | 53% | 1019.3 hPa | - | - | - | - |
| 1777630201 | 20.56° C | 53% | 1019.3 hPa | - | - | - | - |
| 1777629902 | 20.56° C | 52% | 1019.1 hPa | - | - | - | - |
| 1777629602 | 20.56° C | 50% | 1019.2 hPa | - | - | - | - |
| 1777629302 | 20° C | 52% | 1019.1 hPa | - | - | - | - |
| 1777629002 | 20° C | 51% | 1019.1 hPa | - | - | - | - |
| 1777628702 | 20° C | 51% | 1019.2 hPa | - | - | - | - |
| 1777628402 | 19.44° C | 54% | 1019.1 hPa | - | - | - | - |
| 1777628102 | 19.44° C | 54% | 1019 hPa | - | - | - | - |
| 1777627802 | 18.89° C | 56% | 1019.1 hPa | - | - | - | - |
| 1777627502 | 18.89° C | 55% | 1019.1 hPa | - | - | - | - |
| 1777627201 | 18.33° C | 55% | 1019.1 hPa | - | - | - | - |
| 1777626902 | 18.33° C | 54% | 1019.1 hPa | - | - | - | - |
| 1777626602 | 18.33° C | 56% | 1018.9 hPa | - | - | - | - |
| 1777626302 | 18.33° C | 54% | 1018.9 hPa | - | - | - | - |
| 1777626001 | 18.33° C | 55% | 1018.8 hPa | - | - | - | - |
| 1777625702 | 18.33° C | 56% | 1019.1 hPa | - | - | - | - |
| 1777625402 | 18.33° C | 54% | 1019.2 hPa | - | - | - | - |
| 1777625102 | 18.33° C | 56% | 1019 hPa | - | - | - | - |
| 1777624802 | 17.78° C | 57% | 1018.8 hPa | - | - | - | - |
| 1777624502 | 17.78° C | 56% | 1018.6 hPa | - | - | - | - |
| 1777624202 | 17.78° C | 55% | 1018.9 hPa | - | - | - | - |
| 1777623902 | 17.78° C | 58% | 1018.6 hPa | - | - | - | - |
* Rain since midnight (hover to see other rain measurements)
** Current wind speed in m/s (hover to see current wind gust speed)